This is the latest recevied weather packets stored in our database for station/object WA6MHA-11. If no packets are shown the sender has not sent any weather packets the latest 10 day(s).
| Time | Temp. | Humidity | Pressure | Rain* | Wind** | Luminosity | Snow |
|---|---|---|---|---|---|---|---|
| 1777700035 | 14.44° C | 52% | 1015.2 hPa | 0 mm | - | - | - |
| 1777699794 | 14.44° C | 52% | 1015.3 hPa | 0 mm | - | - | - |
| 1777699553 | 14.44° C | 52% | 1015.3 hPa | 0 mm | - | - | - |
| 1777699312 | 15° C | 52% | 1015.3 hPa | 0 mm | - | - | - |
| 1777699071 | 15° C | 52% | 1015.2 hPa | 0 mm | - | - | - |
| 1777698829 | 15° C | 51% | 1015.2 hPa | 0 mm | - | - | - |
| 1777698587 | 15° C | 51% | 1015.1 hPa | 0 mm | - | - | - |
| 1777698346 | 15° C | 51% | 1015.1 hPa | 0 mm | - | - | - |
| 1777697864 | 15° C | 51% | 1015 hPa | 0 mm | - | - | - |
| 1777697623 | 15° C | 51% | 1015 hPa | 0 mm | - | - | - |
| 1777697382 | 15.56° C | 50% | 1015 hPa | 0 mm | - | - | - |
| 1777697140 | 15.56° C | 50% | 1015 hPa | 0 mm | - | - | - |
| 1777696899 | 15.56° C | 50% | 1014.9 hPa | 0 mm | - | - | - |
| 1777696659 | 15.56° C | 50% | 1014.9 hPa | 0 mm | - | - | - |
| 1777696417 | 15.56° C | 49% | 1014.8 hPa | 0 mm | - | - | - |
| 1777695934 | 16.11° C | 49% | 1014.7 hPa | 0 mm | - | - | - |
| 1777695451 | 16.11° C | 48% | 1014.5 hPa | 0 mm | - | - | - |
| 1777695210 | 16.11° C | 48% | 1014.5 hPa | 0 mm | - | - | - |
| 1777694244 | 17.22° C | 47% | 1014.3 hPa | 0 mm | - | - | - |
| 1777694003 | 17.22° C | 47% | 1014.2 hPa | 0 mm | - | - | - |
| 1777693767 | 17.22° C | 46% | 1014 hPa | 0 mm | - | - | - |
| 1777693521 | 17.22° C | 46% | 1014.1 hPa | 0 mm | - | - | - |
| 1777693286 | 17.78° C | 45% | 1014 hPa | 0 mm | - | - | - |
| 1777693040 | 18.33° C | 45% | 1013.9 hPa | 0 mm | - | - | - |
| 1777692798 | 18.33° C | 45% | 1013.9 hPa | 0 mm | - | - | - |
* Rain since midnight (hover to see other rain measurements)
** Current wind speed in m/s (hover to see current wind gust speed)